User: anonymous   Login
Location: Unspecified
(0.0000°N, 0.0000°E)
Time: 16:39:38
(UTC+00:00)
Language:

Alouette 1 - Orbit

View from above orbital plane
View from above orbital plane
View from above satellite
View from above satellite

Ground track
Ground track

The orbit data is extracted from the following two-line orbital elements,

1 00424U 62049A   18169.83759954  .00000045  00000-0  41315-4 0  9993
2 00424  80.4680 264.6282 0022950 207.0298 293.1205 13.69106886781640
Epoch (UTC): 18 June 2018 20:06:08
Eccentricity: 0.0022950
inclination: 80.4680°
perigee height: 986 km
apogee height: 1020 km
right ascension of ascending node: 264.6282°
argument of perigee: 207.0298°
revolutions per day: 13.69106886
mean anomaly at epoch: 293.1205°
orbit number at epoch: 78164

The dashed part of the orbit path shows where the satellite is in the earth's shadow,  

DLR